This is the latest recevied weather packets stored in our database for station/object EFHKFMI. If no packets are shown the sender has not sent any weather packets the latest 10 day(s).
| Time | Temp. | Humidity | Pressure | Rain* | Wind** | Luminosity | Snow |
|---|---|---|---|---|---|---|---|
| 1777526810 | 4.44° C | 70% | 1022.1 hPa | 0 mm | - | - | - |
| 1777525610 | 3.89° C | 68% | 1021.9 hPa | 0 mm | - | - | - |
| 1777524410 | 3.89° C | 68% | 1022.4 hPa | 0 mm | - | - | - |
| 1777523210 | 3.89° C | 67% | 1022.3 hPa | 0 mm | - | - | - |
| 1777522010 | 3.33° C | 66% | 1022.3 hPa | 0 mm | - | - | - |
| 1777520810 | 3.33° C | 65% | 1022.2 hPa | 0 mm | - | - | - |
| 1777519610 | 3.33° C | 62% | 1022.3 hPa | 0 mm | - | - | - |
| 1777518410 | 2.78° C | 62% | 1022.4 hPa | 0 mm | - | - | - |
| 1777517210 | 3.33° C | 60% | 1022.4 hPa | 0 mm | - | - | - |
| 1777516010 | 2.78° C | 59% | 1022.4 hPa | 0 mm | - | - | - |
| 1777514810 | 2.22° C | 60% | 1022.8 hPa | 0 mm | - | - | - |
| 1777513610 | 2.22° C | 59% | 1022.5 hPa | 0 mm | - | - | - |
| 1777512410 | 2.22° C | 57% | 1022.7 hPa | 0 mm | - | - | - |
| 1777511210 | 2.22° C | 58% | 1022.9 hPa | 0 mm | - | - | - |
| 1777510010 | 2.22° C | 56% | 1023.4 hPa | 0 mm | - | - | - |
| 1777508809 | 1.11° C | 60% | 1023.4 hPa | 0 mm | - | - | - |
| 1777507610 | 0.56° C | 58% | 1023.5 hPa | 0 mm | - | - | - |
| 1777506409 | 0.56° C | 59% | 1023.4 hPa | 0 mm | - | - | - |
| 1777505209 | 0° C | 61% | 1023.5 hPa | 0 mm | - | - | - |
| 1777504009 | 0.56° C | 60% | 1023.5 hPa | 0 mm | - | - | - |
| 1777502809 | 0.56° C | 59% | 1023.5 hPa | 0 mm | - | - | - |
| 1777501609 | 1.11° C | 57% | 1023.7 hPa | 0 mm | - | - | - |
| 1777500409 | 1.11° C | 57% | 1023.7 hPa | 0 mm | - | - | - |
| 1777499209 | 1.67° C | 54% | 1023.7 hPa | 0 mm | - | - | - |
| 1777498009 | 1.67° C | 54% | 1023.6 hPa | 0 mm | - | - | - |
* Rain latest hour (hover to see other rain measurements)
** Current wind speed in m/s (hover to see current wind gust speed)